Weather History for LHUD - March, 2013

Change the Weather History Date:

Friday, March 1, 2013

  Actual Average (LRAR) Record (LRAR)
Temperature  
Mean Temperature 36 °F -  
Max Temperature 44 °F 52 °F 59 °F (2007)
Min Temperature 28 °F 34 °F 8 °F (2005)
Degree Days  
Heating Degree Days 29    
Moisture  
Dew Point 35 °F    
Average Humidity 92    
Maximum Humidity 100    
Minimum Humidity 81    
Precipitation  
Precipitation 0.00 in 0.04 in - ()
Sea Level Pressure  
Sea Level Pressure 30.10 in    
Wind  
Wind Speed 4 mph ()    
Max Wind Speed 14 mph    
Max Gust Speed -    
Visibility 3.8 miles    
Events Fog    
Averages and records for this station are not official NWS values.
T = Trace of Precipitation, MM = Missing Value Source: Averaged Metar Reports

Daily Weather History Graph

Daily Weather History Graph

Search for Another Location

Airport or City:

Trip Planner

Search our weather history database for the weather conditions in past years. The results will help you decide how hot, cold, wet, or windy it might be!

Date:

Astronomy

Mar. 01, 2013 Rise Set
Actual Time 6:18 AM CET 5:25 PM CET
Civil Twilight 5:48 AM CET 5:56 PM CET
Nautical Twilight 5:14 AM CET 6:30 PM CET
Astronomical Twilight 4:39 AM CET 7:05 PM CET
Moon 9:56 PM CET (3/1) 7:38 AM CET (3/1)
Length of Visible Light 12h 07m
Length of Day
11h 07m
Waning Gibbous, 85% of the Moon is Illuminated
Mar 1
Waning Gibbous
Mar 4
Last Quarter
Mar 11
New
Mar 19
First Quarter
Mar 27
Full

Hourly Weather History & Observations

Time (CET) Temp. Windchill Dew Point Humidity Pressure Visibility Wind Dir Wind Speed Gust Speed Precip Events Conditions
12:45 AM 30.2 °F - 30.2 °F 100% 30.21 in 0.0 mi South 2.3 mph - N/A Fog Light Freezing Fog
1:00 AM 30 °F - 30 °F 98% 30.23 in 0 mi South 2.2 mph - - Fog Partial Fog
1:45 AM 30.2 °F - 30.2 °F 100% 30.18 in 0.0 mi SSE 2.3 mph - N/A Fog Light Freezing Fog
2:45 AM 28.4 °F 22.2 °F 28.4 °F 100% 30.18 in 0.0 mi South 5.8 mph - N/A Fog Light Freezing Fog
4:45 AM 30.2 °F 25.4 °F 30.2 °F 100% 30.15 in 0.1 mi SW 4.6 mph - N/A Fog Light Freezing Fog
5:15 AM 30.2 °F 26.7 °F 30.2 °F 100% 30.15 in 0.1 mi South 3.5 mph - N/A Fog Light Freezing Fog
5:45 AM 30.2 °F - 30.2 °F 100% 30.15 in 0.1 mi WSW 1.2 mph - N/A Fog Light Freezing Fog
6:15 AM 30.2 °F - 30.2 °F 100% 30.15 in 0.1 mi South 1.2 mph - N/A Fog Light Freezing Fog
6:45 AM 30.2 °F - 30.2 °F 100% 30.15 in 0.1 mi SSW 1.2 mph - N/A Fog Light Freezing Fog
7:00 AM 31 °F - 30 °F 96% 30.15 in 0 mi SSW 2.2 mph - - Fog Fog
7:15 AM 32.0 °F - 32.0 °F 100% 30.15 in 0.5 mi SSW 1.2 mph - N/A Fog Light Freezing Fog
7:45 AM 32.0 °F - 32.0 °F 100% 30.15 in 1.2 mi South 2.3 mph - N/A   Mostly Cloudy
8:15 AM 32.0 °F 27.5 °F 32.0 °F 100% 30.15 in 1.2 mi South 4.6 mph - N/A   Mostly Cloudy
8:45 AM 33.8 °F - 33.8 °F 100% 30.15 in 1.6 mi SW 2.3 mph - N/A   Overcast
9:15 AM 35.6 °F 32.8 °F 35.6 °F 100% 30.12 in 2.2 mi South 3.5 mph - N/A   Overcast
9:45 AM 35.6 °F - 35.6 °F 100% 30.12 in 3.1 mi SW 2.3 mph - N/A   Overcast
10:15 AM 37.4 °F 34.9 °F 37.4 °F 100% 30.12 in 4.3 mi SSW 3.5 mph - N/A   Overcast
10:45 AM 39.2 °F - 39.2 °F 100% 30.12 in 5.0 mi SSW 2.3 mph - N/A   Overcast
11:15 AM 41.0 °F 39.0 °F 41.0 °F 100% 30.12 in 6.2 mi SW 3.5 mph - N/A   Overcast
11:45 AM 41.0 °F 38.0 °F 41.0 °F 100% 30.09 in 6.2 mi WSW 4.6 mph - N/A   Overcast
12:15 PM 42.8 °F 40.1 °F 42.8 °F 100% 30.09 in 6.2 mi WSW 4.6 mph - N/A   Mostly Cloudy
12:45 PM 42.8 °F 40.1 °F 41.0 °F 93% 30.09 in 6.2 mi WNW 4.6 mph - N/A   Mostly Cloudy
1:00 PM 43 °F - 40 °F 87% 30.09 in 9 mi WNW 4.5 mph - -   Partly Cloudy
1:15 PM 42.8 °F 40.1 °F 39.2 °F 87% 30.06 in 6.2 mi WSW 4.6 mph - N/A   Overcast
1:45 PM 44.6 °F 40.7 °F 39.2 °F 81% 30.06 in 6.2 mi West 6.9 mph - N/A   Overcast
2:15 PM 44.6 °F 41.4 °F 39.2 °F 81% 30.06 in 6.2 mi WNW 5.8 mph - N/A   Overcast
2:45 PM 44.6 °F 40.7 °F 39.2 °F 81% 30.06 in 6.2 mi West 6.9 mph - N/A   Overcast
3:15 PM 44.6 °F 40.7 °F 39.2 °F 81% 30.06 in 6.2 mi West 6.9 mph - N/A   Overcast
3:45 PM 42.8 °F 39.3 °F 39.2 °F 87% 30.04 in 6.2 mi West 5.8 mph - N/A   Overcast
4:15 PM 42.8 °F 38.0 °F 39.2 °F 87% 30.04 in 6.2 mi WNW 8.1 mph - N/A   Overcast
4:45 PM 42.8 °F 38.0 °F 37.4 °F 81% 30.04 in 6.2 mi WNW 8.1 mph - N/A   Overcast
5:15 PM 42.8 °F 38.0 °F 37.4 °F 81% 30.04 in 6.2 mi WNW 8.1 mph - N/A   Overcast
5:45 PM 41.0 °F 35.2 °F 37.4 °F 87% 30.04 in 5.0 mi WNW 9.2 mph - N/A   Overcast
6:15 PM 41.0 °F 35.2 °F 35.6 °F 81% 30.04 in 5.0 mi WNW 9.2 mph - N/A   Overcast
6:45 PM 39.2 °F 33.6 °F 35.6 °F 87% 30.04 in 5.0 mi WNW 8.1 mph - N/A   Overcast
7:15 PM 39.2 °F 33.6 °F 35.6 °F 87% 30.04 in 5.0 mi WNW 8.1 mph - N/A   Overcast
7:45 PM 39.2 °F 32.0 °F 35.6 °F 87% 30.04 in 5.0 mi WNW 11.5 mph - N/A   Overcast
8:15 PM 39.2 °F 32.0 °F 33.8 °F 81% 30.06 in 5.0 mi NW 11.5 mph - N/A   Overcast
8:45 PM 39.2 °F 32.5 °F 33.8 °F 81% 30.06 in 5.0 mi WNW 10.4 mph - N/A   Overcast
9:45 PM 39.2 °F 33.6 °F 33.8 °F 81% 30.06 in 5.0 mi WNW 8.1 mph - N/A   Overcast
10:45 PM 39.2 °F 31.2 °F 33.8 °F 81% 30.06 in 5.0 mi WNW 13.8 mph - N/A   Overcast
11:45 PM 37.4 °F 31.4 °F 33.8 °F 87% 30.06 in 6.2 mi WNW 8.1 mph - N/A   Scattered Clouds